Total_Precipitation_Accumulation
2.90 2.81 4.25 4.57 3.99 3.21 3.02 2.84 2.58 2.45 2.48 2.56 2.41 2.37 2.29 2.16 1.96 1.88 1.72 1.60 1.55 1.55 1.62 1.63 1.68 1.78 1.77 1.71 1.71 2.03 2.09 2.09 2.05 2.01 2.22 2.43 2.62 2.84 3.02 3.18 3.35 3.56 3.38
2.35 2.39 3.92 4.30 3.74 3.09 2.73 2.57 2.48 2.40 2.50 2.50 2.50 2.39 2.27 2.08 1.98 1.93 1.68 1.62 1.63 1.61 1.57 1.60 1.67 1.64 1.59 1.65 1.71 1.96 2.00 1.88 1.77 1.90 2.24 2.65 2.80 2.89 2.95 2.94 3.21 3.43 3.22
1.83 2.00 3.00 3.90 3.57 3.10 2.69 2.40 2.40 2.41 2.55 2.60 2.63 2.49 2.25 2.08 2.02 1.89 1.76 1.83 1.78 1.64 1.54 1.49 1.62 1.72 1.68 1.83 1.84 1.89 1.79 1.73 1.76 2.05 2.65 3.42 3.19 2.97 2.94 2.83 3.02 2.92 2.88
1.67 1.82 2.26 3.21 3.13 2.71 2.51 2.42 2.49 2.52 2.66 2.67 2.56 2.39 2.21 2.14 2.11 1.95 1.89 2.01 1.84 1.75 1.63 1.57 1.70 1.85 1.77 1.83 1.82 1.78 1.70 1.74 1.93 2.05 2.53 3.24 3.42 2.99 2.97 3.02 2.98 2.89 2.96
1.60 1.79 2.47 3.20 2.95 2.59 2.40 2.61 2.78 2.76 2.74 2.60 2.41 2.25 2.19 2.19 2.16 2.12 2.11 2.18 1.95 1.85 1.68 1.59 1.68 1.74 1.73 1.77 1.74 1.76 1.75 1.92 2.14 1.99 2.38 2.98 3.59 3.44 2.89 2.89 2.94 2.96 3.18
1.63 1.82 2.43 3.13 2.89 2.64 2.46 2.73 2.87 2.88 2.92 2.79 2.52 2.28 2.19 2.11 2.10 2.08 2.13 2.05 2.00 1.95 1.72 1.59 1.66 1.74 1.75 1.75 1.78 1.79 1.90 2.04 1.99 2.09 2.47 2.93 3.40 3.45 2.98 2.82 2.91 3.19 3.24
1.49 1.57 1.93 2.78 2.89 2.69 2.60 2.84 2.92 2.97 3.12 3.03 2.75 2.56 2.32 2.13 2.11 2.10 2.15 2.01 1.96 1.98 1.96 1.86 1.80 1.81 1.82 1.83 1.75 1.62 1.59 1.58 1.55 1.85 2.15 2.85 3.20 3.30 3.19 2.95 2.85 2.95 3.10
1.57 1.51 1.60 2.41 2.76 2.74 2.77 2.84 2.80 2.80 2.88 2.91 2.68 2.49 2.25 2.09 2.08 2.21 2.28 2.11 2.08 1.94 1.88 1.94 1.94 1.97 2.00 1.98 1.87 1.72 1.56 1.25 1.19 1.45 1.90 2.65 3.21 3.20 3.04 3.04 3.02 2.97 3.20
1.71 1.66 1.61 1.85 2.23 2.60 2.74 2.62 2.57 2.56 2.54 2.64 2.50 2.39 2.21 2.13 2.10 2.19 2.24 2.16 2.19 2.18 2.15 2.22 2.35 2.28 2.20 2.26 2.06 1.87 1.66 1.33 1.29 1.46 1.57 2.52 3.20 3.20 2.97 2.95 3.10 3.24 3.30
1.93 1.79 1.63 1.64 1.73 1.84 2.11 2.32 2.48 2.53 2.47 2.53 2.34 2.15 2.02 2.03 2.07 2.19 2.19 2.18 2.30 2.33 2.36 2.56 2.72 2.64 2.72 2.64 2.22 1.87 1.64 1.36 1.33 1.36 1.72 2.40 3.17 3.33 3.15 2.89 2.79 2.80 2.86
1.80 1.66 1.69 1.67 1.68 1.75 1.75 1.82 2.16 2.30 2.33 2.21 2.11 2.00 1.84 1.61 1.55 1.75 1.91 2.35 2.62 2.79 2.72 2.73 2.62 2.49 2.40 2.25 1.96 1.62 1.38 1.26 1.29 1.40 1.90 2.60 3.30 3.58 3.34 2.89 2.65 2.55 2.57
1.60 1.51 1.51 1.50 1.60 1.66 1.52 1.76 2.07 1.87 1.78 1.55 1.56 1.46 1.55 1.49 1.46 1.26 1.48 2.05 2.35 2.45 2.45 2.46 2.37 2.11 1.81 1.53 1.48 1.35 1.20 1.11 1.09 1.28 2.00 2.81 3.21 3.52 3.35 3.02 2.85 2.73 2.69
1.40 1.34 1.21 1.25 1.28 1.42 1.59 1.84 2.12 2.16 1.96 1.71 1.45 1.36 1.43 1.39 1.33 1.19 1.21 1.40 1.57 1.63 1.51 1.54 1.56 1.42 1.33 1.27 1.31 1.21 1.19 1.15 1.20 1.39 2.18 2.87 3.18 3.36 3.39 3.26 3.18 3.14 3.02
1.17 1.28 1.05 0.94 1.07 1.23 1.33 1.47 1.71 1.76 1.68 1.56 1.36 1.26 1.36 1.43 1.34 1.28 1.28 1.32 1.33 1.29 1.32 1.32 1.40 1.36 1.19 1.10 1.12 1.21 1.22 1.23 1.37 1.65 2.30 2.87 3.26 3.50 3.44 3.39 3.44 3.38 3.42
1.20 1.24 1.11 0.95 0.92 0.98 1.05 1.15 1.25 1.41 1.48 1.49 1.46 1.27 1.28 1.42 1.41 1.37 1.30 1.33 1.21 1.11 1.17 1.26 1.31 1.36 1.27 1.12 1.07 1.11 1.22 1.21 1.29 1.53 1.97 2.59 3.18 3.62 3.79 3.67 3.53 3.41 3.39
1.19 1.24 1.16 1.03 1.01 1.01 0.96 0.94 0.93 1.06 1.24 1.35 1.39 1.30 1.31 1.41 1.44 1.49 1.40 1.32 1.25 1.18 1.20 1.38 1.35 1.37 1.36 1.29 1.13 1.15 1.20 1.19 1.21 1.30 1.50 1.96 2.44 2.98 3.60 3.98 3.81 3.59 3.40
1.25 1.27 1.22 1.15 1.16 1.14 1.06 1.01 0.86 0.89 0.99 1.15 1.32 1.32 1.37 1.32 1.27 1.35 1.36 1.28 1.25 1.26 1.29 1.34 1.37 1.45 1.38 1.28 1.25 1.22 1.21 1.17 1.11 1.18 1.15 1.31 1.49 2.03 2.74 3.33 3.68 3.76 3.75
1.12 1.26 1.35 1.24 1.25 1.23 1.22 1.19 1.10 1.09 1.15 1.25 1.44 1.41 1.37 1.40 1.36 1.38 1.40 1.34 1.34 1.36 1.36 1.40 1.47 1.47 1.44 1.42 1.38 1.34 1.22 1.20 1.15 1.14 1.09 1.09 1.18 1.26 1.64 2.15 2.69 3.19 3.52
1.00 1.10 1.25 1.35 1.41 1.36 1.34 1.42 1.48 1.47 1.47 1.50 1.58 1.49 1.38 1.38 1.43 1.53 1.55 1.53 1.46 1.49 1.50 1.45 1.48 1.41 1.42 1.43 1.34 1.36 1.31 1.27 1.22 1.09 1.12 1.09 1.11 1.08 1.23 1.41 1.70 2.11 2.60
0.91 0.98 1.13 1.28 1.50 1.56 1.55 1.51 1.65 1.67 1.70 1.79 1.86 1.68 1.54 1.56 1.67 1.84 1.90 1.78 1.74 1.73 1.72 1.66 1.71 1.60 1.49 1.52 1.38 1.36 1.34 1.26 1.28 1.26 1.24 1.17 1.21 1.16 1.17 1.21 1.32 1.40 1.80
0.75 0.82 0.94 1.09 1.31 1.39 1.44 1.55 1.76 1.91 2.03 2.12 2.16 2.01 1.87 1.83 1.96 2.11 2.01 2.09 2.09 1.96 1.94 2.00 2.05 2.01 1.82 1.66 1.71 1.61 1.35 1.17 1.25 1.22 1.24 1.30 1.31 1.39 1.41 1.33 1.35 1.38 1.44
0.49 0.56 0.68 0.85 0.97 1.12 1.31 1.59 1.81 2.06 2.09 2.15 2.21 2.20 2.12 2.05 2.17 2.19 2.27 2.36 2.38 2.38 2.32 2.20 2.32 2.48 2.20 1.95 2.08 2.37 1.98 1.63 1.28 1.05 1.16 1.26 1.33 1.57 1.61 1.42 1.29 1.30 1.38
0.41 0.45 0.55 0.70 0.86 1.11 1.36 1.73 2.02 2.30 2.39 2.45 2.41 2.41 2.39 2.37 2.39 2.41 2.46 2.51 2.52 2.38 2.38 2.49 2.62 2.97 2.78 2.39 2.18 2.49 2.34 2.04 1.73 1.27 1.15 1.25 1.35 1.51 1.61 1.66 1.58 1.49 1.42
0.38 0.46 0.59 0.81 1.05 1.34 1.67 2.03 2.29 2.59 2.75 2.59 2.58 2.59 2.52 2.40 2.37 2.45 2.44 2.42 2.38 2.33 2.40 2.48 2.53 2.96 3.20 2.90 2.53 2.11 1.89 1.88 2.01 1.74 1.30 1.25 1.36 1.38 1.48 1.57 1.55 1.66 1.61
0.50 0.60 0.79 1.07 1.39 1.71 1.99 2.16 2.41 2.54 2.56 2.51 2.45 2.45 2.35 2.31 2.27 2.28 2.26 2.34 2.34 2.36 2.43 2.62 2.75 3.01 3.07 3.09 2.89 2.63 2.39 2.08 1.77 1.87 1.83 1.55 1.48 1.37 1.45 1.57 1.62 1.76 1.81
0.70 0.87 1.07 1.25 1.55 1.75 1.93 2.08 2.26 2.39 2.40 2.37 2.35 2.40 2.38 2.33 2.22 2.15 2.11 2.17 2.28 2.40 2.45 2.55 2.74 3.00 3.13 3.24 3.14 2.83 2.72 2.56 2.29 2.19 1.96 1.81 1.77 1.52 1.46 1.52 1.56 1.71 1.91